Meteo Giornale » Osservazioni meteo Austria » Klagenfurt

ore: 22:50 - Osservazioni Meteo Klagenfurt
Lat. 46° 39' N Lon. 14° 20' E Alt. 448 metri s.l.m.

poco_nuvoloso Europe/Vienna

23 °C

Poco Nuvoloso

Temp. 24 Ore

18 °C

32 °C

Nord

5.5 Km/h

Dew point 17 °C

Umidità 68 %

Visibilità  10 Km

Il sole sorge alle ore 05:06

Il sole tramonta alle ore 21:01

Data e Ora Cielo e Fenomeni T °C DP °C Um. % Pres. hPa Vis. km Vento km/h
Oggi h: 22:50 poco_nuvoloso Poco Nuvoloso 23 17 68 1016 10 N 5.5
Oggi h: 22:20 sereno Sereno 24 17 64 1016 10 N 5.5
Oggi h: 21:50 sereno Sereno 24 16 60 1015 10 N 5.5
Oggi h: 21:20 sereno Sereno 25 16 57 1015 10 N 5.5
Oggi h: 20:50 sereno Sereno 25 16 57 1015 10 N 5.5
Oggi h: 20:20 sereno Sereno 26 16 54 1015 10 E 9.3
Oggi h: 19:50 poco_nuvoloso Poco Nuvoloso 27 15 47 1014 10 E 9.3
Oggi h: 19:20 poco_nuvoloso Poco Nuvoloso 28 16 48 1014 10 E/SE 9.3
Oggi h: 18:50 poco_nuvoloso Poco Nuvoloso 29 16 45 1014 10 E/SE 11.1
Oggi h: 18:20 poco_nuvoloso Poco Nuvoloso 30 14 37 1014 10 E/SE 13
Oggi h: 17:50 poco_nuvoloso Poco Nuvoloso 30 14 37 1014 10 E 13
Oggi h: 17:20 poco_nuvoloso Poco Nuvoloso 32 14 33 1014 10 E 11.1
Oggi h: 16:50 poco_nuvoloso Poco Nuvoloso 32 14 33 1014 10 N 9.3
Oggi h: 16:20 poco_nuvoloso Poco Nuvoloso 32 14 33 1014 10 E 9.3
Oggi h: 15:50 poco_nuvoloso Poco Nuvoloso 32 13 31 1014 10 E/SE 7.4
Oggi h: 15:20 poco_nuvoloso Poco Nuvoloso 32 14 33 1014 10 N 7.4
Oggi h: 14:50 poco_nuvoloso Poco Nuvoloso 32 14 33 1015 10 E/SE 7.4
Oggi h: 14:20 poco_nuvoloso Poco Nuvoloso 31 15 37 1015 10 N 5.5
Oggi h: 13:50 poco_nuvoloso Poco Nuvoloso 31 16 40 1015 10 N 5.5
Oggi h: 13:20 poco_nuvoloso Poco Nuvoloso 30 16 42 1016 10 N 3.7
Oggi h: 12:50 poco_nuvoloso Poco Nuvoloso 29 17 48 1016 10 N 5.5
Oggi h: 12:20 poco_nuvoloso Poco Nuvoloso 28 15 45 1016 10 N 5.5
Oggi h: 11:50 poco_nuvoloso Poco Nuvoloso 28 17 51 1016 10 S/SO 7.4
Oggi h: 11:20 poco_nuvoloso Poco Nuvoloso 27 16 50 1017 10 O/SO 9.3
Oggi h: 10:50 poco_nuvoloso Poco Nuvoloso 26 17 57 1017 10 O 7.4
Oggi h: 10:20 poco_nuvoloso Poco Nuvoloso 25 15 53 1017 10 S/SO 7.4
Oggi h: 09:50 poco_nuvoloso Poco Nuvoloso 25 16 57 1017 10 N 3.7
Oggi h: 09:20 poco_nuvoloso Poco Nuvoloso 24 16 60 1018 10 N 5.5
Oggi h: 08:50 poco_nuvoloso Poco Nuvoloso 24 16 60 1018 10 N 5.5
Oggi h: 08:20 poco_nuvoloso Poco Nuvoloso 22 15 64 1018 10 N 3.7
Oggi h: 07:50 sereno Sereno 21 16 73 1018 10 N 3.7
Oggi h: 07:20 sereno Sereno 20 16 77 1018 10 O/NO 7.4
Oggi h: 06:50 sereno Sereno 19 16 82 1018 10 N 5.5
Oggi h: 06:20 sereno Sereno 18 16 88 1018 10 N 5.5
Oggi h: 05:50 sereno Sereno 18 16 88 1018 10 NO 7.4
Oggi h: 05:20 sereno Sereno 18 16 88 1018 10 N 5.5
Oggi h: 04:50 sereno Sereno 18 16 88 1018 10 N 5.5
Oggi h: 04:20 sereno Sereno 18 16 88 1017 10 O/NO 7.4
Oggi h: 03:50 sereno Sereno 18 16 88 1017 10 N 5.5
Oggi h: 03:20 sereno Sereno 18 16 88 1018 10 NO 7.4
Oggi h: 02:50 sereno Sereno 19 16 82 1018 10 NO 7.4
Oggi h: 02:20 sereno Sereno 19 16 82 1018 10 N 3.7
Oggi h: 01:50 sereno Sereno 19 16 82 1018 10 O/NO 7.4
Oggi h: 01:20 sereno Sereno 20 17 82 1017 10 N 5.5
Oggi h: 00:50 sereno Sereno 21 17 77 1017 10 N 5.5
Oggi h: 00:20 sereno Sereno 20 16 77 1017 10 N 3.7
Ieri h: 23:50 sereno Sereno 20 16 77 1017 10 N 1.8